RH
19 17 16 17 19 21 19 18 18 17 17 15 13 14 15 15 14 14 15 15 15 16 17 17 18 18 17 17 17 17 17 18 19 21 26 35 45 51 55 54 50 48 45
17 17 17 18 20 20 19 19 19 19 17 15 15 15 15 15 14 15 15 16 16 18 19 19 19 18 18 17 17 19 22 24 26 28 29 35 44 52 52 49 51 46 45
16 16 17 19 20 20 19 19 19 19 17 16 16 15 15 15 15 16 17 18 18 19 20 20 19 19 19 22 27 30 31 31 32 34 36 39 43 43 43 42 43 42 37
16 17 19 20 20 20 20 21 20 20 19 17 16 16 15 16 16 18 19 19 19 20 20 21 22 24 29 34 34 33 33 34 37 40 41 42 42 42 42 43 39 38 36
17 19 20 20 20 21 21 21 22 21 18 16 16 16 16 16 18 20 20 20 20 21 23 27 32 37 39 37 35 34 34 35 36 38 41 46 46 46 44 42 39 36 38
19 20 20 21 21 21 22 22 22 19 16 16 16 16 16 18 19 20 20 21 23 29 37 41 42 42 42 39 37 36 36 36 36 37 39 41 46 49 50 46 40 38 34
20 21 22 22 22 22 22 21 18 16 15 16 17 17 18 19 21 23 25 29 35 40 43 42 43 43 42 41 40 39 39 39 39 38 38 37 37 40 44 47 47 43 36
22 23 23 23 22 22 20 18 16 15 16 17 19 21 24 27 31 36 40 42 43 43 43 42 43 43 43 43 43 43 42 42 42 42 40 38 37 36 36 38 42 46 45
23 24 24 24 23 21 19 18 17 18 21 23 29 34 39 42 44 44 45 45 45 45 45 45 46 46 46 46 46 46 46 47 46 44 42 40 38 36 35 34 35 38 44
25 25 24 22 21 20 19 20 22 25 31 39 44 46 47 47 47 47 47 48 48 49 49 51 51 52 52 51 51 51 50 50 50 49 47 44 42 39 37 35 34 32 34
23 22 20 19 19 20 23 29 36 42 46 47 47 48 49 49 51 52 53 53 53 53 55 57 58 59 58 58 57 56 55 54 53 51 50 47 44 42 39 37 36 34 33
21 20 19 20 25 31 38 42 43 46 49 51 53 55 57 58 59 59 59 60 61 62 63 63 64 65 64 64 63 63 61 60 59 56 52 50 45 42 39 36 35 34 33
22 27 32 34 35 37 41 45 50 54 57 58 60 62 63 64 66 67 66 66 66 66 66 67 70 72 72 73 72 68 66 65 61 58 54 51 46 43 40 35 33 30 30
36 35 36 37 41 44 48 52 56 61 65 67 70 71 71 72 72 71 70 68 68 71 75 77 80 82 83 82 79 73 67 63 60 56 51 47 43 40 37 34 31 30 29
39 41 44 48 53 56 59 61 63 65 69 72 73 73 73 73 74 74 76 78 81 85 89 88 86 85 80 77 74 69 66 60 56 52 48 44 43 41 37 34 33 31 30
48 50 54 56 58 58 59 60 64 68 72 76 78 78 77 78 80 83 86 86 87 87 86 85 81 74 71 71 68 64 58 54 48 46 45 44 43 42 41 40 37 34 32
58 62 65 65 67 68 69 69 69 68 66 64 65 66 68 72 72 69 66 62 58 55 58 59 59 57 54 53 50 46 45 44 44 42 40 36 37 36 36 35 33 32 32
70 72 73 75 75 72 68 64 62 61 60 58 56 54 49 45 43 40 36 32 30 31 31 31 35 38 35 33 32 34 33 34 34 33 31 32 32 33 34 32 30 28 28
73 75 74 74 69 64 59 54 51 47 44 42 39 35 34 34 34 34 31 26 25 23 20 19 18 19 19 21 21 21 21 19 17 20 24 27 26 26 29 31 30 30 29
78 77 75 68 60 53 47 41 38 37 36 36 36 34 32 28 25 22 21 19 18 18 17 17 17 17 17 15 16 19 22 19 18 19 18 19 23 25 27 30 32 32 31
78 75 66 54 47 47 44 40 39 40 36 32 29 27 25 25 25 22 18 17 16 16 16 16 14 14 15 15 15 16 19 20 23 24 21 20 23 25 25 29 32 32 34
69 62 48 44 43 43 42 39 35 32 28 25 24 25 26 25 24 22 17 16 16 16 16 17 15 15 16 17 19 22 25 29 38 36 28 24 25 26 26 28 28 31 37
51 45 43 43 42 38 35 31 26 26 26 26 25 25 26 25 23 17 16 17 18 20 20 22 22 22 25 29 34 38 39 40 45 46 41 35 32 32 32 33 33 38 39
44 39 35 32 31 31 28 29 28 26 24 23 23 22 21 18 18 21 25 29 31 35 37 41 42 42 41 46 48 51 53 57 62 65 61 54 49 49 48 46 44 47 48
37 35 32 29 26 26 25 25 24 24 23 22 20 20 22 25 30 36 43 48 49 57 57 58 59 58 53 57 65 70 73 72 70 75 74 71 69 67 66 68 66 63 62
33 28 27 26 26 25 24 23 24 25 28 29 30 32 37 42 48 53 55 65 68 71 74 74 76 72 76 76 77 79 83 84 88 92 91 88 88 87 87 87 88 87 82